Location: *
(58.7167°N, 26.1833°E)
Time: 11:08:58
(UTC+00:00)

NOSS 2-1 (D) - Pass Details

Date: 25 August 2019
Orbit: 462 x 1741 km, 63.3° (Epoch: 13 September)

Event Time Altitude Azimuth Distance (km) Brightness Sun altitude
Exits shadow 23:44:13 11° 275° (W) 1,734 5.7 -18.5°
Maximum altitude 23:47:54 49° 352° (N) 784 4.4 -18.3°
Drops below altitude 10° 23:52:45 10° 67° (ENE) 2,273 7.1 -18.1°
Sets 23:55:37 0° 73° (ENE) 3,410 8.0 -17.9°
